Location: ?
(35.4214°N, 139.3011°E)
Time: 22:43:02
(UTC+00:00)

Cosmos 1400 Rocket - Pass Details

Date: 14 July 2020
Orbit: 521 x 569 km, 81.2° (Epoch: 10 August)

Event Time Altitude Azimuth Distance (km) Brightness Sun altitude
Rises 10:43:57 0° 353° (N) 2,678 7.0 -8.7°
Reaches altitude 10° 10:46:07 10° 355° (N) 1,777 6.0 -9.1°
Maximum altitude 10:50:01 77° 81° (E) 541 2.7 -9.8°
Drops below altitude 10° 10:53:51 10° 168° (SSE) 1,749 4.9 -10.4°
Enters shadow 10:54:24 - 169° (S) 1,973 5.2 -10.5°
